146  
ASUS41 KCLE 261312  
RWRCLE  
OHIO REGIONAL WEATHER ROUNDUP  
NATIONAL WEATHER SERVICE WILMINGTON, OH  
800 AM EST TUE JAN 26 2021  
 
NOTE: "FAIR" INDICATES FEW OR NO CLOUDS BELOW 12,000 FEET WITH NO  
SIGNIFICANT WEATHER AND/OR S TO VISIBILITY
.  
 
OHZ001>008-015>018-024>027-034-035-043-044-261400-  
NORTHWEST OHIO  
 
CITY SKY/WX TMP DP RH WIND PRES REMARKS
 
DEFIANCE CLOUDY 33 30 88 NE6 29.66F FOG WCI 28  
FINDLAY CLOUDY 33 31 92 N6 29.63R FOG WCI 28  
TOLEDO EXPRESS MIX PCPN 32 30 92 NE8 29.67R FOG WCI 25  
TOLEDO EXEC MIX PCPN 33 31 92 NE8 29.68R FOG WCI 26  
LIMA FOG 33 32 96 NW3 29.63R VSB 3/4  

 
 
OHZ009>014-019>023-028>033-038-089-261400-  
NORTHEAST OHIO  
 
CITY SKY/WX TMP DP RH WIND PRES REMARKS
 
CLE-HOPKINS CLOUDY 34 31 88 CALM 29.60S  
CLE-LAKEFRONT CLOUDY 36 32 85 SE3 29.62S  
CUY CO. ARPT CLOUDY 32 30 93 SE8 29.60F FOG WCI 25  
LORAIN-ELYRIA CLOUDY 33 30 88 N3 29.62S FOG  
ASHTABULA LGT RAIN 33 30 88 E8 29.64F FOG WCI 26  
AKRON-CANTON LGT RAIN 34 31 88 SE10 29.61S VSB 3/4 WCI 26  
WOOSTER CLOUDY 32 32 100 S6 29.60F FOG WCI 26  
MANSFIELD CLOUDY 34 34 100 S9 29.58S FOG WCI 27  
YOUNGSTOWN FRZ DRZL 33 29 85 SE12 29.62F FOG WCI 24  

 
 
OHZ042-051>053-060>062-070>072-077>081-261400-  
SOUTHWEST OHIO  
 
CITY SKY/WX TMP DP RH WIND PRES REMARKS
 
CINC-COVINGTON CLOUDY 40 38 93 SW10 29.69R  
CINC-LUNKEN CLOUDY 40 38 93 SW10 29.70R  
HAMILTON CLOUDY 36 35 96 W7 29.68S FOG  
DAYTON FOG 35 31 85 SW12 29.65R VSB 1/4 WCI 27  
WRIGHT-PAT AFB CLOUDY 35 33 95 SW3 29.64R FOG  
DAYTON GENERAL FOG 37 35 92 SW12 29.65R VSB 1/2  
WILMINGTON FOG 34 33 96 SW9 29.63S VSB 1/2 WCI 27  

 
 
OHZ036-037-039>041-045>050-054>059-063>069-073>076-082>088-261400-  
CENTRAL AND SOUTHEAST OHIO  
 
CITY SKY/WX TMP DP RH WIND PRES REMARKS
 
COLUMBUS DRZL/FOG 34 34 100 S5 29.63R VSB 1/4 WCI 30  
OSU AIRPORT FOG 35 34 96 S6 29.63R VSB 3/4  
BOLTON FIELD FOG 34 34 100 SW7 29.64R VSB 1/2 WCI 28  
RICKENBACK AFB FOG 33 33 100 S5 29.64R VSB 1/4 WCI 29  
NEWARK N/A N/A N/A N/A MISG 29.62R  
MARION FOG 34 32 92 SW7 29.62R VSB 1 WCI 28  
LANCASTER FOG 35 34 96 CALM 29.64R VSB 3/4  
ZANESVILLE FOG 36 36 100 S3 29.62R VSB 3/4  
NEW PHILLY CLOUDY 34 34 100 CALM 29.62F FOG  

 
 
 
CLICK HERE TO GO TO PREVIOUS BULLETINS.

The Nexlab OH Page
The Nexlab PA Page Main Text Page